Regional Weather Roundup
Issued by NWS

Home | Current Version | Previous Version | Text Only | Print | Product List | Glossary On
Versions: 1 2 3 4 5 6 7 8 9 10 11 12 13 14 15 16 17 18 19 20 21 22 23 24 25 26 27 28 29 30 31 32 33 34 35 36 37 38 39 40 41 42 43 44 45 46 47 48 49 50
000
ASHW40 PHFO 050910
RWRHI

WEATHER ROUNDUP FOR HAWAII
NATIONAL WEATHER SERVICE HONOLULU HI
1100 PM HST WED MAR 04 2015

THIS IS AN AUTOMATED REPORT THAT HAS NOT BEEN QUALITY CONTROLLED.

NOTE..."FAIR" INDICATES FEW OR NO CLOUDS BELOW 12,000 FEET WITH NO
SIGNIFICANT WEATHER AND/OR OBSTRUCTIONS TO VISIBILITY.

* - THESE SITES REPORT LIMITED FIELDS

HIZ001>004-051000-
KAUAI-NIIHAU-

CITY           SKY/WX    TMP DP  RH WIND       PRES   REMARKS
LIHUE APT      MOCLDY    67  62  84 N14       30.06S
PORT ALLEN*      N/A     66 N/A N/A NE6         N/A
POIPU*         NOT AVBL
PRINCEVILLE*     N/A     68 N/A N/A MISG        N/A
KOKOLE POINT*  NOT AVBL
MOLOAA DAIRY*  NOT AVBL
WAIMEA HTS*    NOT AVBL
PUU OPAE*      NOT AVBL
PUU LUA*       NOT AVBL
MAKAHA RIDGE*  NOT AVBL
$$

HIZ005>011-051000-
OAHU-

CITY           SKY/WX    TMP DP  RH WIND       PRES   REMARKS
HONOLULU       LGT RAIN  69  66  90 CALM      30.02S
KALAELOA       CLOUDY    67  65  93 E6        30.03F
KANEOHE MCB    CLOUDY    70  66  88 NE18G25   30.00F
WHEELER FIELD  FAIR      65  64  95 NW5       30.02S
BELLOWS*       NOT AVBL
KAHUKU*        NOT AVBL
WHEELER*       NOT AVBL
WAIANAE HARBOR NOT AVBL
DILLINGHAM*      N/A     68  64  88 MISG        N/A
KAHUKU TRN*      N/A     66  64  94 N10G18      N/A
KAWAILOA*        N/A     64  63  94 NE12G25     N/A
KII*             N/A     70  66  88 VRB17       N/A
MAKUA RANGE*     N/A     70  64  83 E7G22       N/A
OAHU FOREST NW NOT AVBL
SCHOFIELD BRK*   N/A     64  63  94 CALM        N/A
SCHOFIELD S*   NOT AVBL
WAIANAE VLY*   NOT AVBL
KUAOKALA*      NOT AVBL
HONOULIUULI*   NOT AVBL
MOKUOLOE IS*   NOT AVBL
PALEHUA*       NOT AVBL
WAIAWA PHB*    NOT AVBL
$$

HIZ012>013-051000-
MOLOKAI-

CITY           SKY/WX    TMP DP  RH WIND       PRES   REMARKS
MOLOKAI AIRPT  CLOUDY    68  67  96 N10       30.02F
KALAUPAPA      NOT AVBL
MAKAPULAPAI*   NOT AVBL
MOLOKAI 1*     NOT AVBL
PUU ALII*      NOT AVBL
$$

HIZ016-051000-
KAHOOLAWE-

CITY           SKY/WX    TMP DP  RH WIND       PRES   REMARKS
KAHOOLAWE*     NOT AVBL
HAKIOAWA*      NOT AVBL
HONOKANAIA*      N/A     70  60  70 N6G17     29.99R
KANELOA*         N/A    N/A N/A N/A MISG        N/A
KEALIALALO*    NOT AVBL
LUA MAKIKA*    NOT AVBL
$$

HIZ014>015-051000-
LANAI-

CITY           SKY/WX    TMP DP  RH WIND       PRES   REMARKS
LANAI CITY     FAIR      66  60  81 VRB3      30.05R
LANAI 1*       NOT AVBL
$$

HIZ017>028-051000-
MAUI-

CITY           SKY/WX    TMP DP  RH WIND       PRES   REMARKS
KAHULUI        CLOUDY    71  65  81 N13       30.00R
KAPALUA-W MAUI NOT AVBL
HANA AIRPORT   MOCLDY    64  64 100 CALM      30.03S
HANA*          NOT AVBL
HALEAKALA SUMM   N/A     36  36 100 N25         N/A  WCI  23
MAALAEA BAY*   NOT AVBL
HALEAKALA*     NOT AVBL
KAUPO GAP*     NOT AVBL
KULA 1*          N/A     48  41  76 E3G10       N/A
$$

HIZ023>026-051000-
BIG ISLAND OF HAWAII COAST AND LOWER SLOPES-

CITY           SKY/WX    TMP DP  RH WIND       PRES   REMARKS
KAILUA KONA    CLOUDY    70  62  76 NE8       29.98S
HILO           LGT RAIN  68  61  78 NW6       30.01R
HONOKAA*       NOT AVBL
KAWAIHAE MWT*  NOT AVBL
KAWAIHAE*        N/A     70 N/A N/A NE6         N/A
SOUTH POINT*   NOT AVBL
UPOLU AIRPORT* NOT AVBL
KAMUELA*       CLOUDY    59  57  94 N9        30.07S
HAKALAU*         N/A     46  46 100 W2G8        N/A
KALOKO-HONOKO* NOT AVBL
PALI 2*          N/A     57  52  82 N12G24      N/A
KEALAKOMO*       N/A     72  55  56 N23G35      N/A
KAUPULEHU*     NOT AVBL
KAPAPALA*        N/A     61  58  90 CALM        N/A
LOWER KAHUKU*  NOT AVBL
PUHE CS*       NOT AVBL
PUHO CS*       NOT AVBL
PTA KEAMUKU*     N/A     55  52  88 CALM        N/A
WAIKOLOA*      NOT AVBL
$$

HIZ027>028-051000-
BIG ISLAND OF HAWAII INTERIOR AND SUMMMITS-

CITY           SKY/WX    TMP DP  RH WIND       PRES   REMARKS
BRADSHAW FIELD LGT RAIN  48  46  93 SE3       30.26R
MK VISITOR CEN NOT AVBL
MAUNA KEA*       N/A     30  30 100 NW20        N/A  WCI  18
MAUNA LOA*       N/A     36  34  93 MISG        N/A
MAUNA LOA 1*   NOT AVBL
PTA KIPUKA*      N/A     52  48  87 E3G14       N/A
PTA RANGE 17*    N/A     50  46  87 E6G12       N/A
PTA WEST*        N/A     54  50  87 SE7G13      N/A
NENE CABIN*    NOT AVBL
AHUMOA*        NOT AVBL
PTA PORTABLE*  NOT AVBL
PUU MALI*      NOT AVBL
$$

HIC003-051000-
NORTHWEST ISLANDS-

CITY           SKY/WX    TMP DP  RH WIND       PRES   REMARKS
MIDWAY ISLAND  PTCLDY    59  54  82 E18G31    30.43R
MIDWAY NOS*    NOT AVBL
FRENCH FRIGATE NOT AVBL
$$

PHZ110>124-180-051000-
BUOY REPORTS

STATION/POSITION TIME  TEMP    WIND        PRES    WAVE   SWELL
                       AIR SEA DIR/SP/G            HT/PER HT/DIR
                 (UTC) (F)     (DEG/KT/KT) (MB)    (FT/S) (FT/D)
BUOY 51001       NOT AVBL
BUOY 51101       0900   67 71   30/ 17/ 21 1020.6F  11/10   8/ 30
BUOY 51100       0800   72      30/ 16     1015.4F
BUOY 51003       0800   75 78  100/ 16/ 19 1015.1R   9/ 8   7
BUOY 51004       0755   76 78   60/ 16/ 17 1013.1R   9/ 9   8/ 80
BARBERS PT BUOY  NOT AVBL
WAIMEA BAY BUOY  0900      77                N/A     8/ 9   3/ 20
KAILUA BAY BUOY  0900      76                N/A     7/ 9   3/ 70
LANAI BUOY       0900      76                N/A     3/13   2/180
BARBERS PT 2     0900      77                N/A     4/15   2/260
PAUWELA MAUI     0900      74                N/A     9/10   3/ 70
HILO             0900      77                N/A     8/10   3/100
KANEOHE BAY BUOY 0900      76                N/A     7/10   2/ 20
HANALEI KAUAI    NOT AVBL
KAHULUI HARBOR   0900   72 77   10/ 13/ 17   N/A
HONOLULU HARBOR  0900   70 76  340/  3/ 11   N/A
KILO NALU        NOT AVBL
HILO HARBOR      0900   70 74  340/ 14/ 18   N/A
MOKUOLOE         0900   68 76   50/ 11/ 13 1016.8F
NAWILIWILI       0900   67 77  350/  7/ 11   N/A
WHOTS BUOY       NOT AVBL
BUOY 51028       NOT AVBL
$$

......................KEY........................................
  SKY/WX - SKY CONDITIONS/PRESENT WEATHER
  TMP    - TEMPERATURE IN FAHRENHEIT
  DWPT   - DEWPOINT IN FAHRENHEIT
  RH     - RELATIVE HUMIDITY IN PERCENT
  WIND   - DIRECTION AND SPEED /MPH FOR ISLANDS...KTS FOR BUOYS/
  PRES   - MEAN SEA LEVEL PRESSURE IN INCHES OF HG
  VSB    - VISIBILITY IN MILES
  HX     - HEAT INDEX
  WCI    - WIND CHILL INDEX
  VRB    - VARIABLE WIND DIRECTION
  N/A    - NOT AVAILABLE


USA.gov is the U.S. government's official web portal to all federal, state and local government web resources and services.